DELTA 1 DEB, 7138

Orbit data source: Space-Track

DELTA 1 DEB, 7138 is space debris in SSO originally from a launch on Tue, 06 Nov 1973 UTC launched from the Air Force Western Test Range (AFWTR). Debris objects in space refer to the collection of defunct objects orbiting the Earth. Examples of debris include non-operational satellites, rocket bodies, and fragments generated from explosions, collisions, or faulty payload assembly.

Loading next visibility...
Identifier
7138, 1973-086DC
Orbit
SSO
Country
Flag of USUS
Related business
Manufacturer
Unknown
Mission
Spacecraft
Bus & Motor
Unknown
Mass
Unknown
Launch date (UTC)
1973-11-06 (52 years ago)
Launch vehicle
Unknown
Launch site
Air Force Western Test Range (AFWTR)
Object type
Payload
Rocket body
Debris
Shape & HBR
Unknown shape, 0.6 m
Radar Cross Section
Medium (>0.1 m² and <1 m²)

Expand to show TLE details & history
Last TLE update: 6 hours ago

TLE from 6 hours ago
0 DELTA 1 DEB
1  7138U 73086DC  26124.49205667 -.00000027  00000-0  14026-3 0  9993
2  7138 102.0702  69.1073 0054285  32.8089  76.4924 12.31896092360487
Epoch: 2026-05-04T11:48Z
TLE epoch observation values (Epoch: 2026-05-04T11:48:33.696Z)
Latitude
66.92807°
Longitude
-120.4419°
Altitude
1,542.717 km
Speed
7.106 km/s
True Right ascension
18h 36m 18s
True Declination
66° 48' 58"
Sunlit
Object was in daylight at epoch
Visualization orbit readout
Latitude
Unknown
Longitude
Unknown
Altitude
Unknown
Speed
Unknown
Apparent Right ascension
Unknown
Apparent Declination
Unknown
Sunlit
N/A
Visualization observer readout
Local Sidereal Time
01:35:10
Azimuth
Unknown
Elevation
Unknown
Doppler factor
Unknown
Orbital elements
Apogee altitude
1,581.711 km
Perigee altitude
1,495.757 km
Semi-major axis
7,916.871 km
Eccentricity
0.00543
Inclination
102.0702°
RAAN
69.1073°
Arg. of periapsis
32.8089°
True anomaly
77.0982°
Mean anomaly
76.4924°
Eccentric anomaly
76.79521°
Mean motion
3.08115 °/min
Orbital period
116.84 mins
BSTAR
0.00014026
Loading maneuver chart data...
Computing Atmospheric mass density...
Loading historical data...
Loading historical data...
Loading historical data...
Loading historical data...
Loading historical data...
Loading historical data...
Loading historical data...

Documentation

Showing up to 5 results
|